SCP
2 3 3 3 5 6 5 3 2 2 2 2 3 3 2 2 2 1 1 1 1 1 1 1 1 1 1 1 1 1 1 1 1 0 0 0 1 1 1 1 1 1 1
2 3 3 3 4 5 5 3 2 2 2 2 3 3 2 2 2 2 1 1 1 1 1 1 1 1 1 1 1 1 1 1 1 0 0 0 0 1 1 1 1 1 1
2 3 3 3 3 3 3 3 3 3 3 2 2 2 2 2 2 2 2 1 1 1 1 1 1 1 1 1 1 1 1 1 1 1 1 0 0 1 1 1 1 1 0
3 3 2 2 2 2 2 2 3 3 3 3 2 2 2 2 2 2 2 2 1 1 1 1 2 2 2 2 2 1 1 1 1 1 1 1 1 1 0 0 0 0 0
2 2 2 2 2 2 3 3 3 3 4 4 4 3 2 2 2 2 2 2 2 2 2 2 2 2 2 2 2 2 2 1 1 1 1 1 1 1 1 0 0 0 0
2 2 2 2 2 2 3 3 3 4 4 4 4 4 3 3 2 2 2 2 2 2 2 2 2 2 1 1 1 2 1 1 1 1 1 1 1 1 1 1 1 0 0
2 2 2 2 2 3 3 3 3 4 4 4 4 4 4 4 3 3 2 2 2 2 2 2 2 2 2 1 1 1 1 1 1 1 1 1 1 1 1 1 1 1 1
2 2 2 2 3 3 3 3 3 4 4 4 4 5 5 5 4 4 3 3 3 3 3 3 3 3 2 1 1 1 1 1 1 1 1 1 2 2 1 1 1 0 0
2 2 2 2 3 3 3 3 3 4 3 3 3 4 5 5 5 4 4 3 3 3 3 3 2 2 2 2 2 1 1 1 1 1 1 2 2 2 1 1 1 1 1
2 2 2 2 3 3 3 3 4 4 3 3 3 3 4 5 5 4 4 3 3 3 3 3 2 2 2 2 2 2 1 1 1 1 1 1 2 2 1 1 1 1 1
2 2 3 3 3 3 3 3 4 4 4 3 3 3 3 4 4 4 3 3 3 3 3 2 2 2 2 2 2 1 1 1 1 1 1 1 1 1 1 1 1 1 1
2 2 2 2 2 3 3 3 3 4 4 4 4 4 3 3 3 3 3 3 3 2 2 2 2 2 2 2 2 2 2 1 1 1 1 1 1 1 1 1 1 1 1
3 2 2 2 2 3 3 3 3 4 4 4 4 4 3 3 2 2 3 3 3 2 2 2 2 2 3 3 3 3 3 2 2 1 1 1 1 1 1 1 1 1 1
3 3 3 3 2 3 3 4 3 3 3 3 3 3 3 3 3 3 3 3 3 3 3 3 3 3 3 4 4 4 4 4 3 2 1 1 1 1 1 1 1 1 1
3 3 3 3 3 3 4 4 4 3 3 3 3 3 3 3 3 3 3 3 3 4 4 4 4 4 4 4 4 4 4 4 3 2 1 1 1 1 1 1 1 1 1
3 3 3 3 3 3 3 3 4 4 4 4 4 4 4 4 4 3 4 4 4 5 5 4 4 4 3 3 2 3 3 3 2 1 1 1 1 1 0 0 0 0 1
3 3 3 3 3 3 3 3 3 4 5 4 4 4 5 5 5 4 5 5 5 5 5 5 4 3 2 1 1 1 2 2 1 1 1 1 1 1 1 0 0 0 1
3 3 3 3 3 2 3 3 3 4 5 5 4 4 5 5 6 6 5 5 5 5 5 5 4 3 2 1 0 0 1 1 1 1 1 1 1 1 1 1 1 1 1
3 3 3 3 2 2 2 3 3 4 5 6 6 5 6 6 7 6 6 5 5 5 5 5 4 4 2 1 0 0 1 1 1 2 2 1 1 1 1 1 1 1 1
2 2 2 2 2 2 2 2 3 3 4 6 7 7 7 7 7 7 6 6 6 6 5 5 4 4 3 1 0 0 1 2 2 2 2 1 1 1 0 1 1 1 1
2 1 1 2 2 2 2 2 2 2 3 5 7 7 8 8 7 6 5 5 6 6 5 4 4 3 3 2 1 0 1 2 2 2 2 1 1 0 0 0 1 1 1
2 1 1 2 1 1 2 2 2 2 3 4 6 7 8 7 6 5 5 5 5 4 4 3 3 3 2 2 1 0 0 1 2 2 2 1 0 0 0 0 0 0 0
1 1 1 1 1 2 2 2 2 2 3 4 5 7 7 6 5 4 3 3 3 3 2 2 2 2 2 2 2 1 1 1 1 2 1 1 0 0 0 0 0 0 0
1 1 1 1 1 2 2 2 2 3 3 4 5 5 5 5 4 3 2 2 2 2 2 2 2 2 3 3 2 2 2 1 1 1 1 1 0 0 0 0 0 0 0
2 2 2 2 2 2 2 2 2 3 3 4 4 4 4 4 3 2 2 2 1 1 1 2 2 2 2 2 2 2 2 2 1 1 1 1 1 1 1 1 1 1 1
2 2 2 2 2 2 2 1 2 2 3 3 3 3 3 3 3 2 2 1 1 1 1 1 1 2 2 1 1 1 1 1 1 1 1 1 1 2 1 1 1 1 1
Wind_Speed
14 14 14 14 14 13 13 13 13 12 9 8 7 7 6 6 5 5 6 6 6 6 5 3 4 4 3 3 4 3 4 3 2 2 2 3 3 2 2 2 2 3 3
14 15 15 14 15 15 14 13 13 13 12 8 7 5 5 5 5 4 5 7 7 6 6 5 4 4 3 4 4 3 3 2 3 3 2 2 4 4 3 3 3 3 3
15 16 16 16 16 15 15 13 14 13 13 11 8 6 5 4 6 6 6 7 7 7 5 5 4 4 4 4 4 4 4 3 3 2 3 2 1 2 3 3 2 2 2
14 15 16 16 16 15 14 14 14 14 13 12 10 11 8 8 7 6 6 7 7 7 6 5 5 5 4 3 5 4 3 4 3 3 2 3 3 2 2 4 4 4 3
14 15 16 16 16 15 14 14 14 14 14 13 12 12 10 7 6 6 6 6 6 7 7 6 5 5 4 4 3 3 4 4 4 3 3 3 3 4 3 2 3 4 4
13 14 14 15 14 14 14 14 14 14 14 14 13 13 11 10 9 8 7 7 6 6 8 7 6 6 4 5 4 4 5 4 3 4 4 3 3 3 3 2 3 3 3
12 13 14 15 15 15 15 14 15 14 14 15 14 13 12 11 11 9 8 8 6 6 7 7 6 6 5 5 4 4 4 4 4 5 4 3 3 2 3 3 2 2 2
10 11 13 13 14 15 15 15 15 14 14 14 13 12 12 9 8 9 8 8 6 6 7 7 7 7 6 6 5 5 5 4 4 5 3 3 3 3 3 3 3 3 3
10 10 11 13 13 14 15 15 14 14 14 14 13 12 12 10 9 9 9 7 6 6 8 8 8 7 7 6 6 5 5 4 5 5 6 5 3 3 3 3 3 3 3
8 9 10 11 12 13 13 14 13 14 13 13 12 10 11 11 9 9 9 8 8 7 8 9 8 8 7 7 7 6 5 5 5 3 3 4 4 3 3 3 3 3 4
8 8 9 10 11 12 13 13 13 13 12 13 12 11 11 11 10 9 9 9 8 8 9 9 9 9 8 8 7 7 6 7 6 5 5 5 4 3 3 3 3 3 3
7 8 9 10 10 11 12 12 12 13 13 12 12 12 11 11 11 10 9 9 9 9 9 9 9 9 8 8 8 8 7 7 7 6 5 6 4 4 4 3 4 3 3
7 8 9 9 10 10 10 11 12 12 12 12 12 12 12 12 11 10 10 10 9 9 9 9 9 9 8 8 8 7 7 7 6 6 6 6 5 5 4 4 4 4 4
7 8 9 9 9 9 9 10 11 11 11 12 12 12 12 12 11 10 10 10 9 9 9 9 9 8 8 8 8 8 7 7 6 6 6 6 6 6 6 5 5 4 4
7 8 8 8 9 9 9 9 10 10 11 11 11 11 11 11 10 10 10 9 9 9 9 9 9 8 8 8 8 8 8 7 7 7 7 7 5 3 4 4 4 5 5
6 7 8 8 9 9 9 9 9 10 10 11 11 10 10 11 10 10 10 9 9 9 9 9 9 9 7 7 7 7 7 7 8 7 7 7 8 7 7 6 5 5 6
5 6 7 7 8 8 8 9 9 9 9 10 10 10 11 10 10 10 10 9 9 9 9 9 9 9 7 9 10 9 7 7 7 7 7 7 6 8 8 9 10 9 8
3 4 5 6 7 8 8 8 9 9 9 9 9 9 9 9 9 9 9 9 8 8 8 8 8 8 8 10 11 10 10 8 8 8 8 8 7 7 7 7 8 8 8
2 2 4 6 6 7 8 8 9 9 9 9 9 9 9 9 9 9 8 8 8 7 7 8 8 8 8 10 12 11 9 8 9 8 8 8 8 5 5 8 8 7 6
3 3 4 6 6 6 7 8 8 8 8 8 8 8 8 8 8 8 8 7 7 7 7 8 8 8 8 10 12 12 8 7 7 7 7 6 6 5 7 8 7 7 6
4 4 4 5 5 6 7 7 7 7 7 7 7 8 8 7 7 7 7 7 7 7 7 7 7 8 7 10 12 12 8 7 7 6 6 5 8 7 7 7 6 5 5
4 4 4 5 4 5 5 6 6 6 6 7 7 7 7 7 6 7 7 7 7 7 7 6 7 6 6 6 9 12 11 7 6 5 4 3 9 8 7 6 5 4 5
5 4 4 4 3 3 4 5 4 5 6 7 7 7 7 6 6 6 6 6 6 6 6 6 6 5 5 5 7 9 10 8 6 3 1 2 6 7 7 7 6 6 6
4 3 4 4 3 2 2 2 3 4 6 7 6 6 6 6 5 4 4 4 4 5 5 5 5 4 4 4 5 6 7 8 7 5 4 4 4 4 3 4 6 5 5
4 4 4 3 3 2 1 1 2 4 6 6 6 6 6 5 5 4 2 1 2 1 1 2 2 3 3 1 1 3 4 4 5 5 5 5 5 5 4 4 4 4 4
4 4 4 4 3 2 2 1 1 3 5 5 5 5 5 5 5 5 5 8 6 8 8 7 3 3 4 5 5 3 3 3 2 3 3 3 3 4 4 4 4 4 3
Wind_Direction
187 182 184 186 183 181 182 184 184 179 178 181 185 188 192 192 191 191 181 186 191 188 199 205 176 208 199 203 199 197 186 199 194 214 193 189 201 189 188 199 186 174 182
184 183 184 186 186 184 186 186 186 184 185 185 189 191 192 193 190 192 182 193 192 194 196 200 200 194 195 199 207 211 230 198 200 240 233 205 185 198 188 184 184 182 177
189 187 187 190 189 188 188 190 188 187 189 185 183 179 177 192 188 189 187 194 195 199 207 196 209 197 211 201 210 213 220 218 207 235 266 270 232 168 166 193 184 185 192
195 191 190 192 192 190 189 192 188 188 187 186 190 191 194 199 196 190 182 185 192 196 197 200 203 207 209 194 213 204 221 228 220 203 246 288 330 279 179 187 173 181 205
198 195 193 192 193 189 188 188 186 187 188 191 193 200 204 202 193 188 181 186 187 195 196 196 198 200 206 197 209 195 229 230 244 234 222 217 226 252 268 210 184 187 191
198 197 194 190 190 188 188 187 187 189 189 193 196 201 204 202 195 190 187 192 189 193 194 194 194 200 202 194 203 206 208 235 250 257 245 232 234 237 244 237 216 195 180
194 192 190 190 188 188 189 189 188 190 191 194 197 200 202 202 200 197 197 200 195 192 189 194 194 199 197 199 199 202 214 211 218 232 238 243 248 263 264 266 243 215 184
190 190 189 188 188 187 188 190 190 191 191 194 196 198 200 203 201 200 199 198 201 192 181 190 194 197 198 200 195 207 204 205 218 226 235 244 237 246 252 266 265 241 213
184 188 187 186 186 186 188 191 190 191 190 192 193 196 199 203 200 193 200 198 195 187 183 188 194 198 196 199 201 209 206 200 215 213 206 229 218 232 250 257 269 277 266
179 182 183 183 183 184 186 189 191 192 190 190 193 193 196 197 195 197 197 195 193 192 187 190 194 197 195 197 206 202 196 206 209 224 229 238 230 220 234 245 250 260 274
173 175 179 178 181 181 183 187 190 189 188 191 192 192 191 191 192 195 196 193 191 190 194 192 194 195 196 197 203 211 194 207 205 209 208 218 241 235 226 228 237 243 254
167 166 169 174 180 182 182 185 188 189 188 187 187 188 188 189 191 193 196 192 191 191 192 193 194 196 196 198 204 209 202 206 207 207 209 214 209 219 250 248 246 244 258
164 164 166 170 176 180 183 184 185 186 185 184 186 186 188 188 191 191 192 191 190 188 189 191 195 198 197 198 204 207 205 208 209 208 211 214 214 219 223 239 242 236 228
168 169 171 174 176 177 180 182 184 181 182 184 186 186 188 188 188 188 187 187 189 188 189 192 196 197 199 199 202 204 205 206 210 213 217 216 216 217 220 224 235 248 251
174 176 177 176 178 177 179 180 181 179 181 184 185 186 187 187 186 184 185 187 192 193 191 194 196 198 199 200 199 204 205 207 210 213 218 217 218 237 246 257 237 233 244
173 177 179 179 181 180 180 176 179 178 180 185 188 184 185 185 184 183 183 185 190 193 193 197 199 201 205 171 186 214 209 210 214 216 216 212 205 206 218 249 269 278 259
164 174 178 179 178 177 177 176 174 175 180 184 184 182 184 184 183 182 182 186 188 191 197 198 203 205 195 169 184 206 222 218 219 218 219 227 204 202 217 211 219 234 246
152 164 170 170 169 168 169 171 170 173 180 182 181 178 184 184 181 181 183 186 189 193 197 198 203 206 195 178 188 197 219 227 223 221 220 227 228 218 226 233 227 228 218
119 147 162 160 161 164 164 168 170 172 178 180 180 177 181 182 180 183 185 189 192 194 198 199 202 206 195 182 188 196 216 221 224 224 223 224 225 196 206 238 242 242 235
94 121 139 142 148 156 161 169 173 174 181 181 179 175 178 181 183 186 189 192 191 194 201 203 206 207 204 184 186 199 223 220 221 217 220 217 227 191 193 230 238 239 244
97 115 124 129 138 153 164 173 175 177 182 179 172 172 176 181 183 184 189 190 192 195 203 202 205 207 206 183 186 198 228 230 227 224 219 199 177 191 198 225 238 242 261
93 104 112 114 127 150 168 175 179 177 176 174 170 170 175 181 179 183 188 190 192 193 199 205 210 205 197 193 188 195 216 250 241 239 231 180 160 179 196 214 229 237 249
78 88 105 108 113 144 173 177 171 173 172 167 169 171 174 180 178 181 183 185 192 201 201 201 207 203 193 180 178 191 205 219 235 240 146 125 155 175 193 210 222 227 237
69 76 94 102 106 118 152 161 165 173 168 165 163 163 164 171 169 175 181 188 196 203 205 205 207 200 191 191 181 186 190 197 209 219 188 177 183 208 237 204 206 226 246
57 60 73 83 91 103 119 142 168 169 166 163 163 165 163 156 142 124 78 127 91 29 252 217 213 210 193 169 151 202 189 192 189 194 202 207 201 203 211 220 222 222 223
63 66 68 73 80 87 87 91 140 168 164 158 159 160 153 142 139 134 110 62 61 61 55 41 35 68 74 94 97 83 61 68 110 192 207 208 215 220 219 218 215 219 234